Location: San Martino di Castrozza
(46.2667°N, 11.8000°E)
Time: 16:20:45
(UTC+00:00)

Cosmos 1607 - Pass Details

Date: 23 April 2021
Orbit: 908 x 994 km, 65.0° (Epoch: 12 May)

Event Time Altitude Azimuth Distance (km) Brightness Sun altitude
Exits shadow 03:17:46 - 204° (SSW) 3,245 6.2 -9.4°
Reaches altitude 10° 03:19:11 10° 203° (SSW) 2,722 5.9 -9.2°
Maximum altitude 03:25:32 69° 122° (ESE) 1,054 4.3 -8.2°
Drops below altitude 10° 03:32:00 10° 40° (NE) 2,766 7.6 -7.2°
Sets 03:34:36 0° 38° (NE) 3,718 8.4 -6.8°
